TimeCDT,TemperatureF,Dew PointF,Humidity,Sea Level PressureIn,VisibilityMPH,Wind Direction,Wind SpeedMPH,Gust SpeedMPH,PrecipitationIn,Events,Conditions,WindDirDegrees,DateUTC
12:15 AM,57.2,53.6,88,30.08,10.0,WNW,9.2,-,N/A,,Mostly Cloudy,300,2012-10-10 05:15:00
12:55 AM,57.2,51.8,82,30.09,10.0,NW,4.6,-,N/A,,Overcast,310,2012-10-10 05:55:00
1:15 AM,57.2,51.8,82,30.09,10.0,NW,8.1,-,N/A,,Overcast,310,2012-10-10 06:15:00
1:35 AM,57.2,51.8,82,30.10,10.0,NW,12.7,-,N/A,,Overcast,320,2012-10-10 06:35:00
1:55 AM,55.4,50.0,82,30.11,10.0,NNW,15.0,19.6,N/A,,Overcast,340,2012-10-10 06:55:00
2:15 AM,53.6,46.4,77,30.13,10.0,NNW,16.1,20.7,N/A,,Overcast,340,2012-10-10 07:15:00
2:35 AM,53.6,46.4,77,30.13,10.0,North,11.5,16.1,N/A,,Overcast,360,2012-10-10 07:35:00
2:55 AM,53.6,48.2,82,30.15,10.0,North,9.2,-,N/A,,Overcast,360,2012-10-10 07:55:00
3:15 AM,53.6,48.2,82,30.15,10.0,North,10.4,17.3,N/A,,Overcast,360,2012-10-10 08:15:00
3:35 AM,51.8,46.4,82,30.16,10.0,North,11.5,17.3,N/A,,Overcast,360,2012-10-10 08:35:00
3:55 AM,51.8,41.0,67,30.17,10.0,North,12.7,17.3,N/A,,Overcast,360,2012-10-10 08:55:00
4:15 AM,50.0,39.2,66,30.17,10.0,North,9.2,-,N/A,,Overcast,360,2012-10-10 09:15:00
4:35 AM,48.2,37.4,66,30.18,10.0,North,10.4,-,N/A,,Overcast,10,2012-10-10 09:35:00
4:55 AM,48.2,37.4,66,30.18,10.0,Calm,Calm,-,N/A,,Overcast,0,2012-10-10 09:55:00
5:15 AM,46.4,37.4,71,30.19,10.0,Calm,Calm,-,N/A,,Overcast,0,2012-10-10 10:15:00
5:35 AM,46.4,37.4,71,30.20,10.0,NNE,3.5,-,N/A,,Overcast,20,2012-10-10 10:35:00
6:15 AM,44.6,37.4,76,30.22,10.0,Calm,Calm,-,N/A,,Mostly Cloudy,0,2012-10-10 11:15:00
6:35 AM,44.6,39.2,81,30.23,10.0,Calm,Calm,-,N/A,,Scattered Clouds,0,2012-10-10 11:35:00
6:51 AM,44.6,39.2,81,30.23,10.0,Calm,Calm,-,N/A,,Clear,0,2012-10-10 11:51:00
7:50 AM,42.8,39.2,87,30.25,10.0,Calm,Calm,-,N/A,,Clear,0,2012-10-10 12:50:00
8:48 AM,50.0,39.2,66,30.28,10.0,Calm,Calm,-,N/A,,Clear,0,2012-10-10 13:48:00
9:47 AM,53.6,32.0,44,30.30,10.0,NNW,6.9,-,N/A,,Clear,340,2012-10-10 14:47:00
10:47 AM,55.4,32.0,41,30.30,10.0,NE,4.6,-,N/A,,Partly Cloudy,50,2012-10-10 15:47:00
11:49 AM,57.2,32.0,38,30.31,10.0,NNE,5.8,-,N/A,,Partly Cloudy,30,2012-10-10 16:49:00
12:55 PM,57.2,32.0,38,30.29,10.0,NNE,4.6,-,N/A,,Partly Cloudy,20,2012-10-10 17:55:00
1:45 PM,59.0,32.0,36,30.26,10.0,NW,6.9,-,N/A,,Partly Cloudy,310,2012-10-10 18:45:00
2:48 PM,60.8,30.2,31,30.23,10.0,NNW,9.2,-,N/A,,Partly Cloudy,330,2012-10-10 19:48:00
3:48 PM,62.6,30.2,30,30.22,10.0,NW,6.9,-,N/A,,Partly Cloudy,310,2012-10-10 20:48:00
4:48 PM,62.6,32.0,32,30.21,10.0,NNE,4.6,-,N/A,,Partly Cloudy,30,2012-10-10 21:48:00
5:45 PM,60.8,32.0,34,30.21,10.0,North,3.5,-,N/A,,Scattered Clouds,350,2012-10-10 22:45:00
6:45 PM,55.4,32.0,41,30.20,10.0,Calm,Calm,-,N/A,,Scattered Clouds,0,2012-10-10 23:45:00
7:45 PM,51.8,35.6,54,30.21,10.0,Calm,Calm,-,N/A,,Mostly Cloudy,0,2012-10-11 00:45:00
8:45 PM,50.0,35.6,58,30.20,10.0,ESE,4.6,-,N/A,,Mostly Cloudy,110,2012-10-11 01:45:00
8:55 PM,50.0,35.6,58,30.20,2.0,SE,3.5,-,N/A,,Haze,130,2012-10-11 01:55:00
9:15 PM,50.0,37.4,62,30.21,9.0,SE,3.5,-,N/A,,Overcast,140,2012-10-11 02:15:00
9:55 PM,50.0,35.6,58,30.20,5.0,ESE,4.6,-,N/A,,Haze,110,2012-10-11 02:55:00
10:15 PM,50.0,35.6,58,30.21,5.0,ESE,5.8,-,N/A,,Haze,110,2012-10-11 03:15:00
10:35 PM,50.0,35.6,58,30.21,10.0,SE,5.8,-,N/A,,Mostly Cloudy,140,2012-10-11 03:35:00
11:15 PM,51.8,35.6,54,30.21,8.0,SE,5.8,-,N/A,,Overcast,140,2012-10-11 04:15:00
11:35 PM,53.6,33.8,47,30.20,6.0,SE,6.9,-,N/A,,Haze,140,2012-10-11 04:35:00
11:55 PM,53.6,35.6,51,30.21,7.0,SE,5.8,-,N/A,,Overcast,140,2012-10-11 04:55:00